Location: Hawks Ness
(60.2333°N, 1.1667°W)
Time: 06:08:59
(UTC+00:00)

Cosmos 1339 Rocket - Pass Details

Date: 22 October 2019
Orbit: 943 x 1005 km, 82.9° (Epoch: 16 November)

Event Time Altitude Azimuth Distance (km) Brightness Sun altitude
Rises 05:20:30 0° 346° (NNW) 3,688 7.4 -13.1°
Reaches altitude 10° 05:23:01 10° 344° (NNW) 2,746 6.7 -12.7°
Maximum altitude 05:29:17 72° 262° (W) 1,042 4.5 -12.0°
Drops below altitude 10° 05:35:37 10° 180° (S) 2,766 6.9 -11.2°
Sets 05:38:09 0° 178° (S) 3,717 7.6 -10.9°
